Погода Стенде

Погода Стенде : погода сейчас, прогноз погоды и архив. Всё, что Вы хотите узнать о погоде Стенде!

Поиск расширенной информации на нашем сайте:

Другие новости

Новости СМИ2

Главная страница сайта

Новости сайта

03.07.2017

Напоминаем, что на нашем специализированном сайте Метеоцентр.Азия вы можете получить высокодетализированные автоматические прогнозы погоды по пунктам России, СНГ и мира в авиационном формате (включающие направление и скорость ветра, видимость, явления погоды, количество и форму облачности, нижнюю и верхнюю границу облачности).


Погода Стенде - сегодня

Время (UTC), дата Ветер
(°,м/с) 
Видим.   Явления Облачность Т
(°С)
Тd
(°С)
f(%) Тe
(°С)
Pmin
(гПа)
dP
(гПа)
Po
(мм)
O2
(г/м3)
Тmin Tmax R s Состояние
почвы
03 17.10.17 210 (ЮЗ) 2-4  н/о    н/о 
+9.5 +9.5 100 +10  1017.6  0.1  756  293           
06 17.10.17 190 (Ю) 2-3  н/о    н/о 
+9.9 +9.8 99 +11  1018.4  0.8  756  292           
09 17.10.17 200 (Ю) 5-8  н/о    н/о 
+11.9 +11.1 95 +14  1016  -2.3  755  289           
12 17.10.17 210 (ЮЗ) 7-11  н/о    н/о 
+14 +11.6 85 +16  1013.1  -2.8  753  286           
15 17.10.17 230 (ЮЗ) 5-11  н/о    н/о 
+15 +12.9 87 +20  1010.4  -2.7  751  284           
18 17.10.17 250 (З) 4-8  н/о    н/о 
+12.9 +10.9 88 +14  1009.7  -0.7  750  287           
21 17.10.17 250 (З) 4-8  н/о    н/о 
+12.1 +10 87 +13  1009.3  -0.3  750  287           
00 18.10.17 240 (ЮЗ) 3-6  н/о    н/о 
+11 +7.8 81 +11  1008.5  -0.9  749  289           
03 18.10.17 260 (З) 4-7  н/о    н/о 
+11.1 +8.6 85 +10  1007  -1.5  748  288           
06 18.10.17 260 (З) 6-10  н/о    н/о 
+11.5 +8.8 83 +10  1007  -0.1  748  288           
09 18.10.17 270 (З) 4-6  н/о    н/о 
+11.5 +10.3 92 +13  1008.5  1.4  749  288           
12 18.10.17 290 (З) 4-6  н/о    н/о 
+11.1 +9.9 92 +11  1010.7  2.1  751  289           
15 18.10.17 330 (СЗ) 2-3  н/о    н/о 
+7.8 +5.1 83 +8  1012.9  2.1  752  294           
18 18.10.17 290 (З) 1-1  н/о    н/о 
+4.5 +3.9 96 +5  1014.9  1.8  754  298           
21 18.10.17 тихо () -1  н/о    н/о 
+1.7 +1.5 99 +2  1016.3  1.3  755  302           
00 19.10.17 170 (Ю) 1-1  н/о    н/о 
+0.4 +0.1 98 +1  1017.2  0.8  755  304           
03 19.10.17 120 (ЮВ) 1-2  н/о    н/о 
-0.3 -0.5 99 1017.8  0.6  756  305           
06 19.10.17 130 (ЮВ) 1-2  н/о    н/о 
+0.4 -0.1 96 +1  1019  1.2  757  304           
09 19.10.17 280 (З) 2-3  н/о    н/о 
+9.6 +6 78 +10  1020.1  1.4  758  294           
12 19.10.17 300 (СЗ) 1-2  н/о    н/о 
+9.8 +5.2 73 +11  1020.4  0.3  758  294           
15 19.10.17 тихо () -1  н/о    н/о 
+8.6 +5.4 80 +9  1020.8  0.3  758  295           
18 19.10.17 140 (ЮВ) 1-1  н/о    н/о 
+2 +1.7 98 +3  1022  759  303           
21 19.10.17 160 (Ю) 1-2  н/о    н/о 
-0.3 -0.6 98 1022.7  0.6  759  306           
00 20.10.17 140 (ЮВ) 1-2  н/о    н/о 
-0.6 -1.3 95 1022.9  0.2  760  307           
03 20.10.17 140 (ЮВ) 2-2  н/о    н/о 
-0.7 -1.5 94 -2  1022.9  760  307           
Время (UTC), дата Ветер
(°,м/с) 
Видим.   Явления Облачность Т
(°С)
Тd
(°С)
f(%) Тe
(°С)
Pmin
(гПа)
dP
(гПа)
Po
(мм)
O2
(г/м3)
Тmin Tmax R s Состояние
почвы

Для получения пояснительной информации подведите курсор к названию столбца.

ПОГОДА Стенде - архив

Всё, что Вы хотите узнать о погоде Стенде - удобно и подробно!

Выберите нужную дату (начиная с 1 января 2015* года) и нажмите кнопку "Найти".
Будут отображены архивные сводки погоды по пункту Стенде, начиная с указанной даты.


Отображать данные в формате CSV (для использования в таблицах Excel)


Внимание! Наш архив погоды предназначен исключительно для личного некоммерческого использования в познавательных целях. Если Вам необходимы официальные справки о состоянии погоды (для производственных, юридических, коммерческих и т.п. целей), обращайтесь в органы Росгидромета.

*Примечание: данная дата относится к архиву по метеостанциям СССР (Россия, СНГ, Балтия).
Архив по метеостанциям Зарубежной Европы и Азии (кроме Китая) хранится 10 дней, по другим регионам земного шара (Китай, Африка, Америка, Австралия, Океания) - 1 день.

Стенде - район местоположения метеостанции


Название, широта, долгота, высота метеостанции:
Стенде 57.2°ш. 22.6°д. 79 м над ур. моря [Латвия]

Дополнительная информация

В oтличие oт бoльшинства пoгoдных сайтoв мы публикуем пoдрoбную метеoинфoрмацию в детальнoм прoфессиoнальнoм фoрмате.

Характеристики температуры и влажнoсти вoздуха измеряются на высoте 2 м в тени вдали oт зданий и деревьев.
Скoрoсть ветра измеряется на высoте 10 м (на урoвне рoста челoвека скoрoсть ветра ниже в 1.5-2 раза). Если метеoстанция нахoдится в гoрoде или в лесу, тo скoрoсть ветра занижена на 2-4 м/с пo сравнению с oткрытым местoм. Скoрoсть ветра над акватoриями крупных рек и oзёр, а также на вершинах хoлмoв на 2-5 м/с выше, чем в oбычных услoвиях.
Атмoсфернoе давление в разных тoчках местнoсти мoжет значительнo oтличаться oт давления на метеoстанции, в зависимoсти oт услoвий рельефа (при пoдъёме на 10 м давление пoнижается примернo на 1 мм рт.ст.).